Location: Aurora Center
(43.5271°N, 98.5894°W)
Time: 00:09:10
(UTC-05:00)

BlueWalker 3 - Pass Details

Date: 20 June 2024
Orbit: 480 x 492 km, 53.2° (Epoch: 15 July)

Event Time Altitude Azimuth Distance (km) Brightness Sun altitude
Rises 01:54:08 0° 299° (WNW) 2,538 5.8 -22.9°
Reaches altitude 10° 01:56:48 10° 319° (NW) 1,658 5.1 -22.9°
Maximum altitude 01:59:30 19° 5° (N) 1,217 4.8 -22.8°
Drops below altitude 10° 02:02:12 10° 51° (NE) 1,657 5.1 -22.8°
Sets 02:04:51 0° 71° (ENE) 2,537 5.9 -22.7°
